FW5810 Weather Reports


time (UTC)temp
C
wind
direction
speed
KPH
gust
KPH
rain 1hr
cm
rain 24hr
cm
rain mn
cm
humidity
%
barometer
mb
20260502140106 2 31 3.2 8.0 0.00 0.30 0.30 90 1017.6
20260502130532 2 51 11.3 17.7 0.00 0.30 0.30 93 1017.0
20260502123515 2 22 11.3 12.9 0.00 0.30 0.30 94 1017.2
20260502123011 2 1 12.9 12.9 0.00 0.30 0.30 94 1017.3
20260502122508 2 62 8.0 12.9 0.00 0.30 0.30 94 1017.3
20260502122005 2 13 9.7 11.3 0.00 0.30 0.30 94 1017.2
20260502121503 2 27 4.8 8.0 0.00 0.30 0.30 94 1017.0
20260502121000 2 24 1.6 4.8 0.00 0.30 0.30 94 1017.2
20260502120456 2 21 4.8 6.4 0.00 0.30 0.30 94 1017.2
20260502115450 2 34 8.0 11.3 0.00 0.30 0.30 95 1017.0
20260502114946 2 34 3.2 4.8 0.00 0.30 0.30 95 1016.9
20260502114443 2 359 8.0 8.0 0.00 0.30 0.30 95 1016.7
20260502113941 2 23 3.2 6.4 0.00 0.30 0.30 95 1016.7
20260502113438 2 20 1.6 4.8 0.00 0.30 0.30 95 1016.9
20260502112937 2 33 1.6 4.8 0.00 0.30 0.30 95 1016.9
20260502112434 2 29 1.6 4.8 0.00 0.30 0.30 95 1017.0
20260502111931 2 43 3.2 6.4 0.00 0.30 0.30 94 1017.0
20260502111428 2 23 3.2 4.8 0.00 0.30 0.30 95 1016.9
20260502110926 2 20 3.2 4.8 0.00 0.30 0.30 95 1016.7
20260502110423 2 22 4.8 8.0 0.00 0.30 0.30 95 1016.6
20260502105920 2 27 4.8 8.0 0.00 0.30 0.30 95 1016.6
20260502105417 2 13 4.8 8.0 0.00 0.30 0.30 95 1016.5
20260502104915 2 39 1.6 8.0 0.00 0.30 0.30 95 1016.6
20260502104407 2 14 3.2 6.4 0.00 0.30 0.30 95 1016.5
20260502103904 2 14 0.0 4.8 0.00 0.30 0.30 96 1016.6
20260502103402 2 2 8.0 8.0 0.00 0.30 0.30 95 1016.4
20260502102858 2 21 4.8 6.4 0.00 0.30 0.30 95 1016.3
20260502102355 2 9 9.7 11.3 0.00 0.30 0.30 95 1016.5
20260502101852 2 22 3.2 4.8 0.00 0.30 0.30 95 1016.4
20260502101350 2 26 4.8 4.8 0.00 0.30 0.30 95 1016.3
20260502100848 2 14 6.4 11.3 0.00 0.30 0.30 95 1016.2
20260502100348 2 39 6.4 8.0 0.13 0.30 0.30 96 1016.3
20260502091321 2 67 0.0 1.6 0.18 0.28 0.28 96 1016.0
20260502090819 2 68 1.6 1.6 0.00 0.25 0.25 96 1016.0
20260502090315 2 57 1.6 1.6 0.00 0.25 0.25 96 1015.9
20260502071211 3 298 0.0 0.0 0.13 0.08 0.08 97 1016.2
20260502070709 3 298 0.0 1.6 0.13 0.08 0.08 97 1016.4
20260502070206 3 354 0.0 1.6 0.18 0.05 0.05 97 1016.3
20260502065704 3 354 0.0 1.6 0.18 0.05 0.05 97 1016.3
20260502065202 3 355 0.0 1.6 0.00 0.03 0.03 97 1016.2
20260502064701 3 355 1.6 1.6 0.00 0.03 0.03 97 1016.4
20260502064157 3 355 0.0 0.0 0.00 0.03 0.03 97 1016.4
20260502063655 3 355 0.0 0.0 0.00 0.03 0.03 97 1016.4
20260502063153 3 355 0.0 1.6 0.00 0.03 0.03 97 1016.3
20260502062649 3 354 3.2 4.8 0.13 0.03 0.03 97 1016.6
20260502062147 3 355 0.0 0.0 0.13 0.03 0.03 97 1016.5
20260502061645 3 355 0.0 0.0 0.00 0.00 0.00 97 1016.5
20260502061143 3 355 0.0 0.0 0.00 0.00 0.00 97 1016.5
20260502060643 3 355 0.0 0.0 0.00 0.00 0.00 97 1016.5
20260502060140 3 355 0.0 0.0 0.00 0.00 0.00 97 1016.7
20260502055637 3 355 0.0 0.0 0.00 0.00 0.00 97 1016.7
20260502055135 3 355 0.0 0.0 0.00 0.00 0.00 97 1016.6
20260502054634 3 355 0.0 0.0 0.00 0.00 0.00 97 1016.6
20260502054131 3 355 0.0 0.0 0.00 0.00 0.00 97 1016.7
20260502053628 3 355 0.0 0.0 0.00 0.00 0.00 97 1016.9
20260502053125 3 355 0.0 0.0 0.00 0.00 0.00 97 1017.0
20260502052623 3 355 0.0 0.0 0.00 0.00 0.00 97 1017.0
20260502052121 3 355 0.0 0.0 0.00 0.00 0.00 97 1017.2
20260502051619 3 355 0.0 0.0 0.00 0.00 0.00 97 1017.1
20260502051117 3 355 0.0 0.0 0.00 0.00 0.00 97 1016.9
20260502050613 3 355 0.0 0.0 0.00 0.00 0.00 97 1016.9
20260502050110 3 355 0.0 0.0 0.00 0.00 0.00 97 1016.9
20260502045606 3 355 1.6 1.6 0.00 0.00 0.00 97 1017.0
20260502045104 2 355 0.0 0.0 0.00 0.00 0.00 97 1017.1
20260502044600 2 355 0.0 0.0 0.00 0.00 0.00 97 1017.2
20260502044057 2 355 0.0 0.0 0.00 0.00 0.00 97 1017.2
20260502043554 2 355 0.0 0.0 0.00 0.00 0.00 97 1017.1
20260502043050 2 355 0.0 0.0 0.00 0.00 0.00 97 1017.3
20260502042545 2 355 0.0 0.0 0.00 0.00 0.00 97 1017.2
20260502042043 2 355 0.0 0.0 0.00 0.00 0.00 97 1017.2
20260502041541 2 355 0.0 0.0 0.00 0.00 0.00 97 1017.3
20260502041037 2 355 0.0 0.0 0.00 0.00 0.00 97 1017.1
20260502040534 2 355 0.0 0.0 0.00 0.00 0.00 97 1017.3
20260502040031 2 355 0.0 0.0 0.00 0.00 0.00 97 1017.2
20260502035527 2 355 0.0 0.0 0.00 1.07 1.07 97 1017.2
20260502035025 2 355 0.0 0.0 0.00 1.07 1.07 97 1017.3
20260502034523 2 355 0.0 0.0 0.00 1.07 1.07 97 1017.4
20260502034021 2 355 0.0 0.0 0.00 1.07 1.07 97 1017.2
20260502033519 2 355 0.0 1.6 0.00 1.07 1.07 97 1017.2
20260502033016 2 355 1.6 1.6 0.00 1.07 1.07 97 1017.2
20260502032511 2 355 0.0 1.6 0.00 1.07 1.07 97 1017.1
20260502032009 2 355 0.0 0.0 0.00 1.07 1.07 97 1017.0
20260502031507 2 355 0.0 0.0 0.00 1.07 1.07 97 1017.1
20260502031004 2 355 1.6 1.6 0.00 1.07 1.07 97 1017.0
20260502030503 2 355 0.0 0.0 0.00 1.07 1.07 97 1017.0
20260502030000 2 355 0.0 0.0 0.00 1.07 1.07 96 1016.9
20260502025457 2 355 0.0 1.6 0.00 1.07 1.07 97 1017.0
20260502024955 2 355 0.0 1.6 0.00 1.07 1.07 96 1016.9
20260502024452 2 355 0.0 1.6 0.00 1.07 1.07 96 1017.0
20260502023951 2 355 0.0 0.0 0.00 1.07 1.07 96 1017.1
20260502023448 2 355 0.0 0.0 0.00 1.07 1.07 96 1016.9
20260502022945 2 355 0.0 0.0 0.00 1.07 1.07 96 1016.9
20260502022441 2 355 0.0 0.0 0.00 1.07 1.07 96 1016.6
20260502021938 2 355 0.0 0.0 0.00 1.07 1.07 96 1017.0
20260502021436 2 355 0.0 0.0 0.00 1.07 1.07 96 1016.9
20260502020933 1 355 0.0 0.0 0.00 1.07 1.07 96 1017.0
20260502020431 2 355 0.0 0.0 0.00 1.07 1.07 96 1016.7
20260502015927 1 355 0.0 0.0 0.00 1.07 1.07 95 1016.6
20260502015425 2 355 0.0 0.0 0.00 1.07 1.07 95 1016.6
20260502014921 2 355 0.0 0.0 0.00 1.07 1.07 95 1016.9
20260502014419 2 355 0.0 0.0 0.00 1.07 1.07 95 1016.7
20260502013915 2 355 0.0 0.0 0.00 1.07 1.07 94 1016.6
20260502013410 2 355 0.0 0.0 0.00 1.07 1.07 94 1016.5
20260502012907 2 355 0.0 0.0 0.00 1.07 1.07 94 1016.3
20260502012405 2 355 0.0 0.0 0.00 1.07 1.07 93 1016.2
20260502011902 2 355 0.0 0.0 0.00 1.07 1.07 93 1016.2
20260502011358 2 355 1.6 0.0 0.00 1.07 1.07 93 1016.2
20260502010855 2 355 0.0 0.0 0.00 1.07 1.07 92 1016.1
20260502010352 3 355 0.0 0.0 0.00 1.07 1.07 92 1016.1
20260502005849 3 355 0.0 0.0 0.00 1.07 1.07 92 1016.0
20260502005347 3 355 0.0 0.0 0.00 1.07 1.07 90 1016.0
20260502004844 3 355 0.0 0.0 0.00 1.07 1.07 88 1015.8
20260502004340 3 355 0.0 0.0 0.00 1.07 1.07 87 1015.8
20260502003838 3 355 0.0 0.0 0.00 1.07 1.07 85 1015.7
20260502003334 4 355 0.0 0.0 0.00 1.07 1.07 83 1015.6
20260502002831 4 355 0.0 0.0 0.00 1.07 1.07 82 1015.3
20260502002328 4 355 0.0 1.6 0.00 1.07 1.07 80 1015.3
20260502001825 5 355 0.0 1.6 0.00 1.07 1.07 80 1015.4
20260502001323 5 3 1.6 4.8 0.00 1.07 1.07 80 1015.3
20260502000820 5 341 0.0 0.0 0.00 1.07 1.07 80 1015.3
20260502000318 5 341 0.0 1.6 0.00 1.07 1.07 78 1015.2
20260501235814 5 340 4.8 6.4 0.00 1.07 1.07 78 1015.2
20260501235310 5 341 1.6 1.6 0.00 1.07 1.07 78 1015.1
20260501234805 5 341 1.6 1.6 0.00 1.07 1.07 77 1015.1
20260501234303 5 32 4.8 8.0 0.00 1.07 1.07 75 1015.1
20260501233801 6 3 0.0 8.0 0.00 1.07 1.07 77 1015.0
20260501233258 6 312 4.8 6.4 0.00 1.07 1.07 76 1015.0
20260501232754 6 351 6.4 12.9 0.00 1.07 1.07 74 1015.0
20260501232251 6 338 4.8 6.4 0.00 1.07 1.07 76 1014.8
20260501231749 5 347 3.2 4.8 0.00 1.07 1.07 77 1015.0
20260501231247 5 4 3.2 4.8 0.00 1.07 1.07 78 1014.8
20260501230745 5 2 0.0 4.8 0.00 1.07 1.07 77 1014.8
20260501230243 5 340 1.6 6.4 0.00 1.07 1.07 75 1014.8
20260501225740 5 340 4.8 16.1 0.00 1.07 1.07 77 1015.0
20260501225238 5 353 14.5 17.7 0.00 1.07 1.07 74 1015.0
20260501224733 5 337 8.0 17.7 0.00 1.07 1.07 75 1014.9
20260501224231 5 326 6.4 17.7 0.00 1.07 1.07 76 1014.7
20260501223727 6 355 9.7 17.7 0.00 1.07 1.07 74 1014.7
20260501223224 6 335 9.7 19.3 0.00 1.07 1.07 78 1014.7
20260501222720 6 346 4.8 11.3 0.00 1.07 1.07 79 1014.5
20260501222217 5 28 11.3 12.9 0.00 1.07 1.07 80 1014.5
20260501221714 5 23 11.3 19.3 0.00 1.07 1.07 80 1014.4
20260501221211 5 31 11.3 25.7 0.00 1.07 1.07 82 1014.2
20260501220709 5 5 14.5 17.7 0.00 1.07 1.07 82 1014.3
20260501220206 5 335 14.5 24.1 0.00 1.07 1.07 81 1014.4
20260501215703 5 7 14.5 17.7 0.00 1.07 1.07 82 1014.4
20260501215158 5 343 11.3 12.9 0.00 1.07 1.07 84 1014.2
20260501214653 5 23 4.8 19.3 0.00 1.07 1.07 82 1014.2
20260501214149 5 343 8.0 22.5 0.00 1.07 1.07 84 1014.1
20260501213646 5 326 12.9 25.7 0.00 1.07 1.07 84 1014.0
20260501213142 5 304 9.7 19.3 0.00 1.07 1.07 85 1014.1
20260501212639 5 11 4.8 17.7 0.00 1.07 1.07 87 1014.0
20260501212135 5 339 8.0 25.7 0.00 1.07 1.07 86 1014.2
20260501211632 5 336 12.9 19.3 0.00 1.07 1.07 86 1013.9
20260501211130 5 0 11.3 19.3 0.00 1.07 1.07 85 1013.8
20260501210626 5 345 17.7 17.7 0.00 1.07 1.07 86 1013.7
20260501210123 5 13 12.9 22.5 0.00 1.07 1.07 87 1013.4
20260501205619 5 4 16.1 17.7 0.00 1.07 1.07 88 1013.4
20260501205117 5 4 9.7 19.3 0.00 1.07 1.07 88 1013.3
20260501204613 5 348 17.7 19.3 0.00 1.07 1.07 88 1013.2
20260501204109 5 282 8.0 16.1 0.00 1.07 1.07 88 1013.2
20260501203606 5 356 8.0 22.5 0.00 1.07 1.07 89 1013.1
20260501203104 5 18 4.8 17.7 0.00 1.07 1.07 90 1013.2
20260501202600 5 331 8.0 11.3 0.00 1.07 1.07 91 1013.1
20260501202057 5 7 9.7 16.1 0.00 1.07 1.07 90 1013.2
20260501201554 5 342 4.8 11.3 0.00 1.07 1.07 90 1013.1
20260501201050 5 2 8.0 17.7 0.00 1.07 1.07 88 1013.2
20260501200548 5 359 11.3 17.7 0.00 1.07 1.07 89 1013.2
20260501200045 5 344 8.0 11.3 0.00 1.07 1.07 92 1013.1
20260501195542 6 345 8.0 12.9 0.00 1.07 1.07 92 1013.2
20260501195038 6 6 4.8 6.4 0.00 1.07 1.07 91 1013.0
20260501194533 6 354 8.0 11.3 0.00 1.07 1.07 90 1012.9
20260501194029 6 23 6.4 11.3 0.00 1.07 1.07 90 1013.2
20260501193527 6 351 1.6 4.8 0.00 1.07 1.07 91 1013.0
20260501193026 6 5 8.0 11.3 0.00 1.07 1.07 89 1012.9
20260501192522 6 344 4.8 8.0 0.00 1.07 1.07 89 1013.2
20260501192020 6 331 6.4 8.0 0.00 1.07 1.07 90 1012.9
20260501191517 6 5 3.2 8.0 0.00 1.07 1.07 89 1012.8
20260501191014 6 359 4.8 11.3 0.00 1.07 1.07 89 1012.8
20260501190509 6 329 3.2 4.8 0.00 1.07 1.07 90 1012.9
20260501190005 6 304 6.4 6.4 0.18 1.07 1.07 92 1012.8
20260501185501 6 328 3.2 8.0 0.30 1.07 1.07 92 1013.0
20260501184957 6 349 6.4 11.3 0.13 1.04 1.04 92 1012.7
20260501184454 6 347 0.0 1.6 0.18 1.02 1.02 92 1012.8
20260501183948 5 339 1.6 6.4 0.30 1.02 1.02 91 1012.8
20260501183446 6 333 8.0 8.0 0.13 0.99 0.99 88 1012.7
20260501182942 6 277 3.2 6.4 0.00 0.97 0.97 91 1012.9
20260501182439 6 277 4.8 6.4 0.18 0.97 0.97 91 1012.8
20260501181936 6 280 4.8 11.3 0.18 0.97 0.97 90 1012.8
20260501181433 6 289 3.2 12.9 0.13 0.94 0.94 90 1012.7
20260501180930 6 248 9.7 12.9 0.13 0.94 0.94 89 1012.7
20260501180427 6 229 1.6 11.3 0.00 0.91 0.91 90 1012.8
20260501175923 6 233 6.4 12.9 0.18 0.91 0.91 89 1012.9
20260501175421 6 274 8.0 8.0 0.13 0.89 0.89 91 1012.7
20260501174917 6 230 11.3 17.7 0.30 0.89 0.89 90 1012.7
20260501174415 6 277 4.8 11.3 0.36 0.86 0.86 90 1012.9
20260501173912 6 215 11.3 19.3 0.30 0.84 0.84 90 1012.7
20260501173410 6 227 8.0 11.3 0.30 0.81 0.81 89 1012.7
20260501172905 6 184 6.4 11.3 0.30 0.79 0.79 91 1012.8
20260501172401 6 214 16.1 19.3 0.13 0.76 0.76 90 1012.6
20260501171856 6 243 3.2 11.3 0.18 0.74 0.74 90 1012.9
20260501171353 6 207 4.8 8.0 0.30 0.74 0.74 90 1012.8
20260501170850 6 255 3.2 6.4 0.30 0.71 0.71 91 1012.8
20260501170347 6 220 6.4 6.4 0.18 0.69 0.69 90 1012.6
20260501165845 6 260 4.8 11.3 0.00 0.66 0.66 88 1012.5
20260501165342 6 267 4.8 8.0 0.00 0.66 0.66 91 1012.6
20260501164839 6 269 3.2 6.4 0.13 0.66 0.66 91 1012.7
20260501164337 6 242 1.6 4.8 0.30 0.66 0.66 91 1012.8
20260501163832 6 278 6.4 11.3 0.18 0.64 0.64 89 1012.7
20260501163329 6 232 8.0 8.0 0.00 0.61 0.61 90 1012.9
20260501162826 6 287 3.2 4.8 0.13 0.61 0.61 89 1012.9
20260501162323 6 296 4.8 11.3 0.18 0.58 0.58 89 1012.9
20260501161820 6 271 12.9 16.1 0.30 0.58 0.58 88 1012.8
20260501161317 6 244 8.0 12.9 0.30 0.56 0.56 90 1012.9
20260501160813 6 269 8.0 11.3 0.48 0.53 0.53 90 1013.1
20260501160310 6 288 4.8 8.0 0.48 0.51 0.51 91 1013.0
20260501155808 6 283 1.6 6.4 0.30 0.46 0.46 91 1013.1
20260501155306 6 290 6.4 8.0 0.30 0.43 0.43 91 1013.0
20260501154801 6 219 1.6 1.6 0.18 0.41 0.41 91 1013.1
20260501154258 6 212 9.7 11.3 0.13 0.38 0.38 90 1013.0
20260501153756 6 190 3.2 6.4 0.13 0.38 0.38 90 1013.1
20260501153253 6 210 1.6 11.3 0.00 0.36 0.36 90 1013.0
20260501152749 6 225 4.8 6.4 0.18 0.36 0.36 91 1013.2
20260501152246 6 236 4.8 12.9 0.18 0.36 0.36 90 1013.1
20260501151744 6 199 1.6 4.8 0.13 0.33 0.33 91 1013.3
20260501151239 6 207 0.0 4.8 0.13 0.33 0.33 91 1013.1
20260501150736 6 164 3.2 4.8 0.18 0.30 0.30 90 1013.0
20260501150232 6 278 3.2 4.8 0.13 0.28 0.28 90 1013.2
20260501145728 6 271 1.6 4.8 0.18 0.25 0.25 90 1013.2
20260501145226 6 191 3.2 6.4 0.36 0.25 0.25 90 1013.3
20260501144722 6 205 3.2 6.4 0.30 0.23 0.23 89 1013.3
20260501144218 6 209 8.0 11.3 0.13 0.20 0.20 88 1013.1